CW9476 Weather Reports


time (UTC)temp
F
wind
direction
speed
knots
gust
knots
rain 1hr
in
rain 24hr
in
rain mn
in
humidity
%
barometer
mb
20260506051114 66 190 0.0 3.5 0.00 0.00 0.00 60 1010.8
20260506050114 66 230 3.5 4.3 0.00 0.00 0.00 59 1010.8
20260506045113 66 225 0.0 4.3 0.00 0.00 0.00 59 1010.8
20260506044613 67 331 0.9 4.3 0.00 0.00 0.00 58 1010.8
20260506044114 67 204 1.7 4.3 0.00 0.00 0.00 58 1010.8
20260506043613 67 209 3.5 4.3 0.00 0.00 0.00 58 1010.8
20260506042613 67 207 0.9 3.5 0.00 0.00 0.00 58 1010.9
20260506042113 67 185 1.7 4.3 0.00 0.00 0.00 57 1010.8
20260506041614 67 215 1.7 4.3 0.00 0.00 0.00 57 1010.8
20260506041114 67 180 0.9 3.5 0.00 0.00 0.00 57 1010.8
20260506040613 67 69 0.0 2.6 0.00 0.00 0.00 56 1010.8
20260506040113 67 250 0.9 3.5 0.00 0.00 0.00 56 1010.7
20260506034613 67 238 0.9 3.5 0.00 0.00 0.00 56 1010.7
20260506034113 67 253 1.7 4.3 0.00 0.00 0.00 56 1010.6
20260506033613 68 272 2.6 4.3 0.00 0.00 0.00 55 1010.7
20260506033113 68 204 0.0 3.5 0.00 0.00 0.00 55 1010.8
20260506032613 68 235 0.0 3.5 0.00 0.00 0.00 55 1010.7
20260506032113 68 241 0.9 4.3 0.00 0.00 0.00 55 1010.7
20260506031613 68 233 2.6 6.1 0.00 0.00 0.00 54 1010.7
20260506031113 69 131 4.3 6.1 0.00 0.00 0.00 54 1010.8
20260506030613 69 223 0.9 4.3 0.00 0.00 0.00 54 1010.9
20260506030113 69 221 0.9 5.2 0.00 0.00 0.00 53 1010.7
20260506025613 69 302 0.9 5.2 0.00 0.00 0.00 53 1010.8
20260506025113 69 36 1.7 5.2 0.00 0.00 0.00 53 1010.7
20260506023613 70 227 0.9 4.3 0.00 0.00 0.00 51 1010.8
20260506023113 70 217 2.6 3.5 0.00 0.00 0.00 50 1010.8
20260506022613 70 183 2.6 3.5 0.00 0.00 0.00 49 1010.8
20260506021613 70 207 0.0 5.2 0.00 0.00 0.00 48 1010.9
20260506021113 71 254 1.7 5.2 0.00 0.00 0.00 48 1010.9
20260506020613 71 217 1.7 5.2 0.00 0.00 0.00 48 1010.9
20260506020113 71 208 1.7 5.2 0.00 0.00 0.00 48 1010.9
20260506015612 71 233 0.9 6.1 0.00 0.00 0.00 47 1010.5
20260506015113 71 236 0.9 6.1 0.00 0.00 0.00 47 1010.6
20260506014613 71 202 3.5 3.5 0.00 0.00 0.00 47 1010.5
20260506014112 71 211 1.7 3.5 0.00 0.00 0.00 47 1010.5
20260506013613 71 211 0.9 3.5 0.00 0.00 0.00 46 1010.4
20260506013112 72 209 0.9 4.3 0.00 0.00 0.00 46 1010.6
20260506012612 72 205 0.0 4.3 0.00 0.00 0.00 47 1010.4
20260506012112 72 244 0.9 4.3 0.00 0.00 0.00 46 1010.3
20260506011612 72 205 3.5 8.7 0.00 0.00 0.00 46 1010.2
20260506011112 72 252 1.7 8.7 0.00 0.00 0.00 46 1010.1
20260506010612 72 194 0.9 8.7 0.00 0.00 0.00 45 1010.1
20260506010112 72 219 3.5 6.1 0.00 0.00 0.00 46 1010.1
20260506005612 72 268 0.9 2.6 0.00 0.00 0.00 46 1009.9
20260506005112 72 210 0.9 3.5 0.00 0.00 0.00 46 1009.7
20260506004612 72 215 0.9 3.5 0.00 0.00 0.00 45 1009.7
20260506004112 72 257 0.0 3.5 0.00 0.00 0.00 45 1009.6
20260506003612 72 78 1.7 11.3 0.00 0.00 0.00 45 1009.5
20260506002612 73 221 4.3 4.3 0.00 0.00 0.00 46 1009.5
20260506002112 73 151 0.9 4.3 0.00 0.00 0.00 46 1009.5
20260506001612 73 252 0.0 9.6 0.00 0.00 0.00 45 1009.5
20260506001112 73 86 1.7 9.6 0.00 0.00 0.00 46 1009.5
20260506000612 73 215 2.6 6.1 0.00 0.00 0.00 45 1009.5
20260506000112 73 238 0.9 3.5 0.00 0.00 0.00 46 1009.5
20260505235612 73 181 0.9 4.3 0.00 0.00 0.00 46 1009.4
20260505235112 73 250 0.9 4.3 0.00 0.00 0.00 45 1009.3
20260505234612 73 223 0.9 3.5 0.00 0.00 0.00 45 1009.3
20260505234112 73 213 0.9 4.3 0.00 0.00 0.00 45 1009.2
20260505233112 74 227 2.6 4.3 0.00 0.00 0.00 44 1009.3
20260505232612 74 223 1.7 4.3 0.00 0.00 0.00 45 1009.4
20260505232111 74 194 0.9 4.3 0.00 0.00 0.00 44 1009.3
20260505231611 74 200 0.9 4.3 0.00 0.00 0.00 44 1009.3
20260505231112 74 244 0.0 4.3 0.00 0.00 0.00 44 1009.3
20260505230611 74 230 2.6 4.3 0.00 0.00 0.00 43 1009.0
20260505225611 75 190 1.7 5.2 0.00 0.00 0.00 43 1008.9
20260505225111 75 211 0.9 5.2 0.00 0.00 0.00 42 1009.0
20260505224611 75 205 1.7 5.2 0.00 0.00 0.00 42 1008.9
20260505223611 75 174 2.6 7.8 0.00 0.00 0.00 41 1008.7
20260505223111 75 219 0.9 6.1 0.00 0.00 0.00 41 1008.8
20260505222611 75 171 5.2 7.0 0.00 0.00 0.00 42 1008.8
20260505222111 75 273 1.7 7.0 0.00 0.00 0.00 41 1008.7
20260505221111 76 226 6.1 11.3 0.00 0.00 0.00 41 1008.8
20260505220611 76 291 0.9 8.7 0.00 0.00 0.00 41 1008.8
20260505220111 76 237 3.5 7.8 0.00 0.00 0.00 41 1008.7
20260505215611 76 247 4.3 6.1 0.00 0.00 0.00 41 1008.6
20260505215111 76 254 0.9 6.1 0.00 0.00 0.00 41 1008.7
20260505214611 77 268 0.9 7.8 0.00 0.00 0.00 40 1008.7
20260505214111 77 196 3.5 9.6 0.00 0.00 0.00 39 1008.6
20260505213611 77 109 3.5 9.6 0.00 0.00 0.00 39 1008.4
20260505213111 77 331 0.9 6.1 0.00 0.00 0.00 39 1008.2
20260505212611 78 241 0.0 4.3 0.00 0.00 0.00 36 1008.2
20260505211611 78 292 2.6 7.8 0.00 0.00 0.00 34 1008.1
20260505211111 78 250 1.7 7.8 0.00 0.00 0.00 34 1008.1
20260505210611 78 115 1.7 8.7 0.00 0.00 0.00 33 1008.0
20260505210111 78 258 2.6 8.7 0.00 0.00 0.00 33 1008.1
20260505205610 78 155 1.7 8.7 0.00 0.00 0.00 32 1008.0
20260505205111 78 222 2.6 9.6 0.00 0.00 0.00 32 1008.0
20260505204611 78 248 3.5 9.6 0.00 0.00 0.00 33 1007.9
20260505204110 78 203 4.3 11.3 0.00 0.00 0.00 32 1008.1
20260505203610 78 219 4.3 11.3 0.00 0.00 0.00 33 1008.1
20260505203110 78 211 11.3 11.3 0.00 0.00 0.00 33 1008.1
20260505202610 79 215 4.3 11.3 0.00 0.00 0.00 32 1008.0
20260505202110 79 360 3.5 11.3 0.00 0.00 0.00 31 1008.0
20260505201610 80 224 1.7 7.0 0.00 0.00 0.00 32 1007.9
20260505201110 80 67 0.9 7.8 0.00 0.00 0.00 32 1008.1
20260505200610 80 257 1.7 10.4 0.00 0.00 0.00 31 1008.3
20260505195610 80 107 1.7 8.7 0.00 0.00 0.00 32 1008.3
20260505194610 80 137 2.6 9.6 0.00 0.00 0.00 31 1008.6
20260505193610 81 226 2.6 10.4 0.00 0.00 0.00 31 1008.8
20260505193110 80 294 3.5 10.4 0.00 0.00 0.00 33 1008.8
20260505192610 80 242 2.6 9.6 0.00 0.00 0.00 32 1008.7
20260505192110 80 323 8.7 9.6 0.00 0.00 0.00 31 1008.7
20260505191610 80 174 0.9 7.8 0.00 0.00 0.00 34 1008.6
20260505191110 79 173 2.6 7.8 0.00 0.00 0.00 35 1008.6
20260505190610 80 282 5.2 7.8 0.00 0.00 0.00 35 1008.8
20260505190110 80 217 7.0 7.8 0.00 0.00 0.00 34 1009.0
20260505185610 80 215 4.3 7.8 0.00 0.00 0.00 35 1008.9
20260505185110 79 213 3.5 8.7 0.00 0.00 0.00 35 1008.9
20260505184610 79 210 5.2 8.7 0.00 0.00 0.00 36 1009.0
20260505182610 80 46 3.5 8.7 0.00 0.00 0.00 35 1009.5
20260505182110 80 149 5.2 10.4 0.00 0.00 0.00 35 1009.4
20260505181610 80 218 5.2 13.0 0.00 0.00 0.00 36 1009.4
20260505181109 80 165 1.7 13.0 0.00 0.00 0.00 36 1009.4
20260505180610 80 257 2.6 7.8 0.00 0.00 0.00 38 1009.6
20260505180109 79 306 1.7 7.8 0.00 0.00 0.00 38 1009.5
20260505175109 79 246 4.3 12.2 0.00 0.00 0.00 38 1009.7
20260505174609 79 240 2.6 8.7 0.00 0.00 0.00 39 1009.6
20260505174109 79 254 3.5 8.7 0.00 0.00 0.00 39 1009.5
20260505173609 79 219 2.6 8.7 0.00 0.00 0.00 38 1009.6
20260505173109 79 156 1.7 7.8 0.00 0.00 0.00 41 1009.7
20260505172609 79 167 4.3 7.8 0.00 0.00 0.00 41 1009.8
20260505172109 79 273 1.7 7.0 0.00 0.00 0.00 40 1009.7
20260505171609 79 252 3.5 8.7 0.00 0.00 0.00 40 1009.7
20260505171109 79 302 1.7 8.7 0.00 0.00 0.00 39 1009.9
20260505170609 80 320 4.3 9.6 0.00 0.00 0.00 39 1009.8
20260505170109 80 217 2.6 9.6 0.00 0.00 0.00 40 1009.8
20260505165109 79 263 2.6 5.2 0.00 0.00 0.00 42 1010.1
20260505164609 79 178 0.9 7.8 0.00 0.00 0.00 43 1010.1
20260505164109 79 269 1.7 7.8 0.00 0.00 0.00 43 1010.1
20260505163109 78 220 2.6 7.0 0.00 0.00 0.00 44 1010.4
20260505162609 78 220 1.7 6.1 0.00 0.00 0.00 46 1010.4
20260505162108 78 267 1.7 6.1 0.00 0.00 0.00 45 1010.6
20260505161609 77 195 1.7 6.1 0.00 0.00 0.00 45 1010.6
20260505161109 77 221 2.6 7.8 0.00 0.00 0.00 46 1010.6
20260505160609 77 239 1.7 7.8 0.00 0.00 0.00 45 1010.8
20260505160108 77 192 1.7 8.7 0.00 0.00 0.00 46 1010.9
20260505153108 75 223 3.5 4.3 0.00 0.00 0.00 50 1011.0
20260505152608 75 196 2.6 6.1 0.00 0.00 0.00 49 1011.0
20260505152108 74 67 0.9 6.1 0.00 0.00 0.00 50 1010.9
20260505151608 74 136 1.7 5.2 0.00 0.00 0.00 50 1011.0
20260505151108 73 308 1.7 3.5 0.00 0.00 0.00 52 1011.1
20260505150608 73 127 2.6 4.3 0.00 0.00 0.00 51 1011.2
20260505150108 73 214 2.6 6.1 0.00 0.00 0.00 51 1011.2
20260505140107 70 192 0.9 4.3 0.00 0.00 0.00 55 1011.3
20260505130107 65 140 0.9 6.1 0.00 0.00 0.00 62 1011.3
20260505124607 65 293 6.1 6.1 0.00 0.00 0.00 62 1011.3
20260505124107 64 333 1.7 6.1 0.00 0.00 0.00 64 1011.3
20260505123607 64 274 1.7 7.8 0.00 0.00 0.00 64 1011.2
20260505123107 64 215 2.6 7.8 0.00 0.00 0.00 65 1011.2
20260505122606 63 72 1.7 6.1 0.00 0.00 0.00 65 1011.1
20260505122107 63 219 0.9 5.2 0.00 0.00 0.00 65 1011.1
20260505121607 63 265 2.6 5.2 0.00 0.00 0.00 67 1011.2
20260505121107 62 126 0.9 5.2 0.00 0.00 0.00 69 1011.2
20260505120607 62 244 1.7 4.3 0.00 0.00 0.00 70 1011.4
20260505120106 61 239 0.9 7.8 0.00 0.00 0.00 71 1011.2
20260505115606 61 236 3.5 7.8 0.00 0.00 0.00 72 1011.1
20260505115106 60 227 1.7 4.3 0.00 0.00 0.00 73 1010.9
20260505114606 60 203 4.3 4.3 0.00 0.00 0.00 74 1011.0
20260505114106 59 221 0.9 3.5 0.00 0.00 0.00 75 1011.0
20260505113606 58 250 1.7 3.5 0.00 0.00 0.00 76 1010.9
20260505113106 58 245 2.6 3.5 0.00 0.00 0.00 77 1010.9
20260505112106 57 121 0.9 2.6 0.00 0.00 0.00 77 1010.9
20260505111606 56 213 0.0 1.7 0.00 0.00 0.00 77 1010.7
20260505111106 56 206 0.0 2.6 0.00 0.00 0.00 77 1010.8
20260505110606 56 189 0.9 3.5 0.00 0.00 0.00 76 1010.7
20260505110106 56 225 0.0 3.5 0.00 0.00 0.00 76 1010.9
20260505102106 57 207 0.0 1.7 0.00 0.00 0.00 71 1010.9
20260505101606 57 165 0.0 0.9 0.00 0.00 0.00 71 1010.9
20260505101105 57 165 0.9 1.7 0.00 0.00 0.00 70 1010.8
20260505100605 57 165 0.0 1.7 0.00 0.00 0.00 70 1010.7
20260505100105 57 165 0.9 1.7 0.00 0.00 0.00 70 1010.6
20260505095605 57 168 0.9 1.7 0.00 0.00 0.00 68 1010.8
20260505095105 57 95 0.9 4.3 0.00 0.00 0.00 68 1010.7
20260505094606 57 205 0.0 4.3 0.00 0.00 0.00 68 1011.0
20260505094105 56 321 2.6 4.3 0.00 0.00 0.00 68 1010.7
20260505093105 56 146 0.9 2.6 0.00 0.00 0.00 68 1010.8
20260505092605 56 277 0.0 1.7 0.00 0.00 0.00 68 1010.8
20260505092105 56 318 0.0 2.6 0.00 0.00 0.00 68 1010.8
20260505091605 56 281 0.9 2.6 0.00 0.00 0.00 67 1010.6
20260505091105 56 32 0.0 3.5 0.00 0.00 0.00 67 1010.5
20260505090105 56 84 1.7 2.6 0.00 0.00 0.00 67 1010.4
20260505085605 56 304 0.9 2.6 0.00 0.00 0.00 66 1010.5
20260505085105 56 294 0.9 2.6 0.00 0.00 0.00 66 1010.5
20260505084104 56 278 1.7 3.5 0.00 0.00 0.00 65 1010.3
20260505083605 56 232 0.9 2.6 0.00 0.00 0.00 65 1010.3
20260505082605 57 238 0.0 2.6 0.00 0.00 0.00 64 1010.4
20260505081604 57 350 0.9 4.3 0.00 0.00 0.00 64 1010.4
20260505080604 57 232 0.9 5.2 0.00 0.00 0.00 64 1010.3
20260505075605 57 243 0.0 6.1 0.00 0.00 0.00 64 1010.4
20260505075104 57 234 0.9 3.5 0.00 0.00 0.00 64 1010.5
20260505074604 57 114 1.7 2.6 0.00 0.00 0.00 64 1010.5
20260505073604 56 322 0.9 5.2 0.00 0.00 0.00 63 1010.4
20260505072604 56 225 0.9 3.5 0.00 0.00 0.00 64 1010.3
20260505072105 56 251 0.0 2.6 0.00 0.00 0.00 64 1010.3
20260505071105 56 109 1.7 3.5 0.00 0.00 0.00 63 1010.4
20260505070604 56 235 0.9 3.5 0.00 0.00 0.00 63 1010.4
20260505065104 57 236 1.7 4.3 0.00 0.00 0.00 62 1010.4
20260505064604 57 199 0.9 4.3 0.00 0.00 0.00 62 1010.4
20260505064104 57 206 0.0 3.5 0.00 0.00 0.00 62 1010.6
20260505063604 57 224 0.9 3.5 0.00 0.00 0.00 62 1010.6
20260505063104 57 226 2.6 2.6 0.00 0.00 0.00 61 1010.6
20260505062604 57 242 0.9 3.5 0.00 0.00 0.00 61 1010.6
20260505061604 57 170 1.7 5.2 0.00 0.00 0.00 61 1010.5
20260505061103 57 223 3.5 5.2 0.00 0.00 0.00 61 1010.7
20260505060603 57 266 0.0 5.2 0.00 0.00 0.00 61 1010.7
20260505060104 57 289 1.7 5.2 0.00 0.00 0.00 61 1010.7